FW7820 Weather Reports


Display with metric or nautical units.
time (UTC)temp
F
wind
direction
speed
MPH
gust
MPH
rain 1hr
in
rain 24hr
in
rain mn
in
humidity
%
barometer
mb
20260506010834 73 102 0.0 1.0 0.00 0.00 0.00 89 1011.6
20260506010333 73 75 0.0 1.0 0.00 0.00 0.00 89 1011.7
20260506005829 73 77 0.0 0.0 0.00 0.00 0.00 88 1011.4
20260506005326 73 72 0.0 0.0 0.00 0.00 0.00 88 1011.5
20260506004822 73 108 0.0 1.0 0.00 0.00 0.00 88 1011.2
20260506004320 73 112 0.0 0.0 0.00 0.00 0.00 88 1011.1
20260506003815 73 180 1.0 1.0 0.00 0.00 0.00 87 1011.3
20260506003312 74 74 0.0 1.0 0.00 0.00 0.00 86 1011.3
20260506002808 74 94 0.0 1.0 0.00 0.00 0.00 86 1011.2
20260506002306 74 254 1.0 1.0 0.00 0.00 0.00 85 1011.0
20260506001801 74 91 1.0 1.0 0.00 0.00 0.00 85 1011.0
20260506001258 75 82 0.0 0.0 0.00 0.00 0.00 85 1011.1
20260506000755 75 107 0.0 1.0 0.00 0.00 0.00 85 1011.1
20260506000254 75 129 0.0 1.0 0.00 0.00 0.00 84 1011.2
20260505235749 75 87 0.0 0.0 0.00 0.00 0.00 84 1011.0
20260505235247 75 192 1.0 2.0 0.00 0.00 0.00 83 1011.0
20260505234744 75 89 0.0 1.0 0.00 0.00 0.00 83 1011.2
20260505234241 75 95 0.0 0.0 0.00 0.00 0.00 83 1011.1
20260505233737 75 94 0.0 0.0 0.00 0.00 0.00 83 1011.2
20260505233236 75 92 1.0 1.0 0.00 0.00 0.00 83 1011.2
20260505232733 76 95 0.0 0.0 0.00 0.00 0.00 83 1011.3
20260505232230 75 91 0.0 1.0 0.00 0.00 0.00 82 1011.5
20260505231726 76 80 0.0 0.0 0.00 0.00 0.00 83 1011.2
20260505231226 76 288 0.0 0.0 0.00 0.00 0.00 82 1011.3
20260505230723 76 9 0.0 1.0 0.00 0.00 0.00 82 1011.2
20260505230219 76 48 0.0 0.0 0.00 0.00 0.00 82 1011.1
20260505225716 76 357 1.0 2.0 0.00 0.00 0.00 82 1011.0
20260505225213 76 91 0.0 0.0 0.00 0.00 0.00 82 1011.2
20260505224709 76 112 0.0 0.0 0.00 0.00 0.00 82 1011.4
20260505224206 76 161 1.0 1.0 0.00 0.00 0.00 82 1011.0
20260505223704 76 94 0.0 0.0 0.00 0.00 0.00 81 1011.1
20260505223159 77 108 0.0 0.0 0.00 0.00 0.00 81 1011.0
20260505222656 77 276 1.0 2.0 0.00 0.00 0.00 80 1011.2
20260505222152 77 297 1.0 2.0 0.00 0.00 0.00 79 1011.4
20260505221650 77 285 1.0 1.0 0.00 0.00 0.00 80 1010.9
20260505221146 77 155 1.0 1.0 0.00 0.00 0.00 81 1011.2
20260505220643 77 77 0.0 0.0 0.00 0.00 0.00 80 1011.1
20260505220141 78 92 1.0 1.0 0.00 0.00 0.00 80 1011.2
20260505215638 78 158 0.0 1.0 0.00 0.00 0.00 79 1011.1
20260505215136 79 88 1.0 1.0 0.00 0.00 0.00 78 1011.2
20260505214634 79 40 0.0 0.0 0.00 0.00 0.00 78 1010.9
20260505214131 79 86 0.0 0.0 0.00 0.00 0.00 78 1011.1
20260505213629 78 108 0.0 0.0 0.00 0.00 0.00 79 1010.9
20260505213125 78 86 0.0 0.0 0.00 0.00 0.00 78 1011.0
20260505212620 79 91 0.0 0.0 0.00 0.00 0.00 76 1010.9
20260505212119 79 109 0.0 1.0 0.00 0.00 0.00 76 1010.9
20260505211615 80 319 1.0 1.0 0.00 0.00 0.00 77 1011.0
20260505211113 80 111 0.0 0.0 0.00 0.00 0.00 75 1010.9
20260505210609 80 201 0.0 1.0 0.00 0.00 0.00 75 1011.0
20260505210106 80 116 2.0 3.0 0.00 0.00 0.00 75 1010.8
20260505205604 80 92 0.0 0.0 0.00 0.00 0.00 74 1010.9
20260505205101 80 92 1.0 1.0 0.00 0.00 0.00 75 1011.0
20260505204558 80 93 0.0 0.0 0.00 0.00 0.00 74 1011.0
20260505204056 80 89 0.0 1.0 0.00 0.00 0.00 72 1011.1
20260505203552 80 123 0.0 0.0 0.00 0.00 0.00 75 1011.0
20260505203049 80 89 0.0 1.0 0.00 0.00 0.00 74 1011.2
20260505202545 81 83 0.0 1.0 0.00 0.00 0.00 73 1011.0
20260505202041 81 123 0.0 1.0 0.00 0.00 0.00 73 1011.3
20260505201538 81 87 0.0 1.0 0.00 0.00 0.00 72 1011.1
20260505201036 81 224 1.0 2.0 0.00 0.00 0.00 71 1011.2
20260505200534 80 88 1.0 1.0 0.00 0.00 0.00 73 1011.1
20260505200030 80 71 0.0 0.0 0.00 0.00 0.00 73 1011.5
20260505195526 80 150 0.0 1.0 0.00 0.00 0.00 73 1011.5
20260505195024 80 89 0.0 0.0 0.00 0.00 0.00 73 1011.5
20260505194521 81 100 0.0 0.0 0.00 0.00 0.00 70 1011.5
20260505194016 81 107 0.0 0.0 0.00 0.00 0.00 71 1011.4
20260505193514 81 111 1.0 2.0 0.00 0.00 0.00 71 1011.7
20260505193011 81 342 2.0 3.0 0.00 0.00 0.00 68 1011.6
20260505192509 82 89 0.0 1.0 0.00 0.00 0.00 68 1011.8
20260505192006 82 68 0.0 0.0 0.00 0.00 0.00 71 1011.8
20260505191505 81 90 0.0 0.0 0.00 0.00 0.00 71 1011.6
20260505191002 81 82 0.0 1.0 0.00 0.00 0.00 70 1011.7
20260505190456 81 45 1.0 1.0 0.00 0.00 0.00 67 1011.4
20260505185952 81 83 0.0 0.0 0.00 0.00 0.00 72 1011.7
20260505185450 81 167 1.0 1.0 0.00 0.00 0.00 69 1011.8
20260505184946 82 80 0.0 0.0 0.00 0.00 0.00 68 1012.0
20260505184443 82 98 0.0 1.0 0.00 0.00 0.00 70 1012.0
20260505183939 83 114 2.0 3.0 0.00 0.00 0.00 65 1012.0
20260505183436 83 108 1.0 1.0 0.00 0.00 0.00 68 1012.1
20260505182933 83 337 3.0 5.0 0.00 0.00 0.00 66 1012.3
20260505182430 82 290 1.0 1.0 0.00 0.00 0.00 69 1012.1
20260505181926 82 91 1.0 1.0 0.00 0.00 0.00 65 1012.5
20260505181424 82 358 1.0 1.0 0.00 0.00 0.00 68 1012.2
20260505180920 82 91 0.0 1.0 0.00 0.00 0.00 68 1012.4
20260505180417 81 41 0.0 0.0 0.00 0.00 0.00 68 1012.4
20260505175913 80 111 0.0 1.0 0.00 0.00 0.00 69 1012.5
20260505175410 82 133 2.0 2.0 0.00 0.00 0.00 65 1012.6
20260505174906 82 157 0.0 1.0 0.00 0.00 0.00 69 1012.5
20260505174404 82 273 0.0 1.0 0.00 0.00 0.00 68 1012.6
20260505173900 81 73 0.0 0.0 0.00 0.00 0.00 70 1012.6
20260505173356 81 244 1.0 1.0 0.00 0.00 0.00 67 1012.6
20260505172853 81 325 2.0 2.0 0.00 0.00 0.00 67 1012.6
20260505172351 80 95 0.0 1.0 0.00 0.00 0.00 66 1012.8
20260505171851 81 165 0.0 1.0 0.00 0.00 0.00 68 1012.8
20260505171348 81 230 1.0 1.0 0.00 0.00 0.00 68 1013.0
20260505170844 80 206 0.0 1.0 0.00 0.00 0.00 71 1012.7
20260505170341 80 74 1.0 1.0 0.00 0.00 0.00 69 1012.9
20260505165836 80 87 0.0 1.0 0.00 0.00 0.00 71 1013.0
20260505165332 79 206 1.0 1.0 0.00 0.00 0.00 72 1013.0
20260505164828 80 85 0.0 1.0 0.00 0.00 0.00 70 1013.3
20260505164325 80 188 1.0 2.0 0.00 0.00 0.00 68 1013.2
20260505163824 80 124 1.0 1.0 0.00 0.00 0.00 69 1013.0
20260505163322 80 90 1.0 1.0 0.00 0.00 0.00 72 1013.0
20260505162820 79 175 0.0 0.0 0.00 0.00 0.00 71 1013.0
20260505162316 79 88 0.0 0.0 0.00 0.00 0.00 73 1013.0
20260505161813 79 93 1.0 1.0 0.00 0.00 0.00 72 1013.2
20260505161310 79 185 1.0 1.0 0.00 0.00 0.00 73 1012.9
20260505160808 78 95 0.0 1.0 0.00 0.00 0.00 73 1013.1
20260505160306 77 136 0.0 1.0 0.00 0.00 0.00 75 1012.8
20260505153244 76 219 1.0 2.0 0.00 0.00 0.00 76 1013.1
20260505152741 76 187 2.0 2.0 0.00 0.00 0.00 74 1012.9
20260505152237 76 185 0.0 0.0 0.00 0.00 0.00 76 1013.1
20260505151732 76 166 0.0 1.0 0.00 0.00 0.00 76 1013.1
20260505151229 76 77 1.0 1.0 0.00 0.00 0.00 76 1013.3
20260505150726 75 112 1.0 1.0 0.00 0.00 0.00 77 1013.6
20260505150223 74 184 1.0 1.0 0.00 0.00 0.00 75 1013.5
20260505140651 72 103 0.0 1.0 0.00 0.00 0.00 80 1013.2
20260505140148 72 97 0.0 0.0 0.00 0.00 0.00 80 1013.1
20260505130112 63 66 0.0 0.0 0.00 0.00 0.00 96 1013.6
20260505124601 61 295 0.0 0.0 0.00 0.00 0.00 99 1013.2
20260505124057 60 94 0.0 0.0 0.00 0.00 0.00 99 1013.0
20260505123554 60 66 0.0 0.0 0.00 0.00 0.00 99 1013.1
20260505123050 59 58 0.0 0.0 0.00 0.00 0.00 99 1012.9
20260505122547 58 51 0.0 0.0 0.00 0.00 0.00 99 1012.9
20260505122044 58 60 0.0 0.0 0.00 0.00 0.00 99 1012.6
20260505121541 57 46 0.0 0.0 0.00 0.00 0.00 99 1012.9
20260505121037 57 46 0.0 0.0 0.00 0.00 0.00 99 1012.8
20260505120528 57 45 0.0 0.0 0.00 0.00 0.00 99 1012.8
20260505120024 56 45 0.0 0.0 0.00 0.00 0.00 99 1012.8
20260505115518 56 43 0.0 0.0 0.00 0.00 0.00 99 1012.6
20260505115017 56 262 0.0 0.0 0.00 0.00 0.00 99 1012.6
20260505114513 55 59 0.0 0.0 0.00 0.00 0.00 99 1012.7
20260505114009 55 59 0.0 0.0 0.00 0.00 0.00 99 1012.7
20260505113506 55 62 0.0 0.0 0.00 0.00 0.00 99 1012.7
20260505113002 55 61 0.0 0.0 0.00 0.00 0.00 99 1012.6
20260505112459 54 61 0.0 0.0 0.00 0.00 0.00 99 1012.5
20260505111956 54 61 0.0 0.0 0.00 0.00 0.00 99 1012.5
20260505111450 54 62 0.0 0.0 0.00 0.00 0.00 99 1012.4
20260505110947 54 63 0.0 0.0 0.00 0.00 0.00 99 1012.4
20260505110443 54 63 0.0 0.0 0.00 0.00 0.00 99 1012.5
20260505101914 55 59 0.0 0.0 0.00 0.00 0.00 99 1012.3
20260505101409 55 58 0.0 0.0 0.00 0.00 0.00 99 1012.5
20260505100905 55 58 0.0 0.0 0.00 0.00 0.00 99 1012.6
20260505100402 55 58 0.0 0.0 0.00 0.00 0.00 99 1012.5
20260505095857 55 58 0.0 0.0 0.00 0.00 0.00 99 1012.7
20260505095355 55 58 0.0 0.0 0.00 0.00 0.00 99 1012.4
20260505094851 55 58 0.0 0.0 0.00 0.00 0.00 99 1012.6
20260505094348 55 58 0.0 0.0 0.00 0.00 0.00 99 1012.6
20260505093843 55 58 0.0 0.0 0.00 0.00 0.00 99 1012.5
20260505093341 55 57 0.0 0.0 0.00 0.00 0.00 99 1012.6
20260505092838 55 58 0.0 0.0 0.00 0.00 0.00 99 1012.3
20260505092337 55 58 0.0 0.0 0.00 0.00 0.00 99 1012.3
20260505091833 55 59 0.0 0.0 0.00 0.00 0.00 99 1012.4
20260505091332 55 59 0.0 0.0 0.00 0.00 0.00 99 1012.3
20260505090829 55 61 0.0 0.0 0.00 0.00 0.00 99 1012.2
20260505090327 55 63 0.0 0.0 0.00 0.00 0.00 99 1012.3
20260505085824 55 65 0.0 0.0 0.00 0.00 0.00 99 1012.3
20260505085322 55 62 0.0 0.0 0.00 0.00 0.00 99 1012.4
20260505084819 55 51 0.0 0.0 0.00 0.00 0.00 99 1012.4
20260505084318 55 48 0.0 0.0 0.00 0.00 0.00 99 1012.2
20260505083814 55 57 0.0 0.0 0.00 0.00 0.00 99 1012.3
20260505083312 55 58 0.0 0.0 0.00 0.00 0.00 99 1012.2
20260505082808 55 58 0.0 0.0 0.00 0.00 0.00 99 1012.3
20260505082305 55 58 0.0 0.0 0.00 0.00 0.00 99 1012.4
20260505081801 55 57 0.0 0.0 0.00 0.00 0.00 99 1012.4
20260505081258 55 60 0.0 0.0 0.00 0.00 0.00 98 1012.7
20260505080755 55 62 0.0 0.0 0.00 0.00 0.00 98 1012.7
20260505080250 55 57 0.0 0.0 0.00 0.00 0.00 98 1012.7
20260505075745 55 61 0.0 0.0 0.00 0.00 0.00 98 1012.8
20260505075243 55 61 0.0 0.0 0.00 0.00 0.00 98 1013.0
20260505074741 55 61 0.0 0.0 0.00 0.00 0.00 97 1013.0
20260505074239 55 61 0.0 0.0 0.00 0.00 0.00 97 1013.0
20260505073736 56 61 0.0 0.0 0.00 0.00 0.00 97 1012.8
20260505073233 56 61 0.0 0.0 0.00 0.00 0.00 97 1013.1
20260505072730 56 61 0.0 0.0 0.00 0.00 0.00 97 1013.2
20260505072226 56 61 0.0 0.0 0.00 0.00 0.00 96 1013.2
20260505071721 56 61 0.0 0.0 0.00 0.00 0.00 96 1013.1
20260505071219 56 61 0.0 0.0 0.00 0.00 0.00 96 1013.3
20260505070716 57 61 0.0 0.0 0.00 0.00 0.00 96 1013.0
20260505070212 57 57 0.0 0.0 0.00 0.00 0.00 96 1013.2
20260505065708 57 57 0.0 0.0 0.00 0.00 0.00 95 1013.5
20260505065205 57 52 0.0 0.0 0.00 0.00 0.00 95 1013.5
20260505064702 57 59 0.0 0.0 0.00 0.00 0.00 95 1013.3
20260505064200 57 62 0.0 0.0 0.00 0.00 0.00 95 1013.2
20260505063657 57 62 0.0 0.0 0.00 0.00 0.00 95 1013.3
20260505063153 57 60 0.0 0.0 0.00 0.00 0.00 94 1013.2
20260505062649 57 61 0.0 0.0 0.00 0.00 0.00 94 1013.3
20260505062147 57 59 0.0 0.0 0.00 0.00 0.00 94 1013.4
20260505061644 58 64 0.0 0.0 0.00 0.00 0.00 93 1013.6
20260505061142 58 63 0.0 0.0 0.00 0.00 0.00 93 1013.6
20260505060639 58 57 0.0 0.0 0.00 0.00 0.00 92 1013.6
20260505060136 58 57 0.0 0.0 0.00 0.00 0.00 92 1013.7
20260505055631 58 53 0.0 0.0 0.00 0.00 0.00 92 1013.5
20260505055128 58 53 0.0 0.0 0.00 0.00 0.00 91 1013.6
20260505054626 58 53 0.0 0.0 0.00 0.00 0.00 91 1013.8
20260505054124 59 52 0.0 0.0 0.00 0.00 0.00 91 1013.7
20260505053621 59 52 0.0 0.0 0.00 0.00 0.00 91 1013.9
20260505053117 59 58 0.0 0.0 0.00 0.00 0.00 91 1013.8
20260505052614 59 57 0.0 0.0 0.00 0.00 0.00 90 1013.6
20260505052112 59 53 0.0 0.0 0.00 0.00 0.00 90 1013.8
20260505051608 59 52 0.0 0.0 0.00 0.00 0.00 90 1013.8
20260505051107 59 53 0.0 0.0 0.00 0.00 0.00 90 1013.6
20260505050604 59 54 0.0 0.0 0.00 0.00 0.00 89 1014.0
20260505041532 60 61 0.0 0.0 0.00 0.00 0.00 87 1013.9
20260505041029 60 69 0.0 0.0 0.00 0.00 0.00 86 1013.9
20260505040526 61 77 0.0 0.0 0.00 0.00 0.00 87 1013.8
20260505040024 61 66 0.0 0.0 0.00 0.00 0.00 86 1013.7
20260505035519 61 51 0.0 0.0 0.00 0.00 0.00 86 1013.9
20260505035016 61 11 0.0 0.0 0.00 0.00 0.00 85 1013.9
20260505034513 61 257 0.0 0.0 0.00 0.00 0.00 85 1013.9
20260505034010 61 65 0.0 0.0 0.00 0.00 0.00 86 1013.8
20260505033507 62 65 0.0 0.0 0.00 0.00 0.00 86 1013.9
20260505033005 61 61 0.0 0.0 0.00 0.00 0.00 85 1013.9
20260505032502 61 21 0.0 1.0 0.00 0.00 0.00 85 1013.6
20260505031958 61 75 0.0 0.0 0.00 0.00 0.00 85 1013.6
20260505031455 61 67 0.0 0.0 0.00 0.00 0.00 85 1013.5
20260505030952 62 70 0.0 0.0 0.00 0.00 0.00 85 1013.4
20260505030448 61 351 0.0 0.0 0.00 0.00 0.00 84 1013.6
20260505025943 61 46 0.0 0.0 0.00 0.00 0.00 85 1013.6
20260505025441 61 67 0.0 0.0 0.00 0.00 0.00 86 1013.4
20260505024940 62 61 0.0 0.0 0.00 0.00 0.00 85 1013.3
20260505024437 62 72 0.0 0.0 0.00 0.00 0.00 83 1013.6
20260505023934 62 82 0.0 0.0 0.00 0.00 0.00 83 1013.4
20260505023431 61 78 0.0 0.0 0.00 0.00 0.00 84 1013.5
20260505022928 61 75 0.0 0.0 0.00 0.00 0.00 85 1013.6
20260505022426 61 76 0.0 0.0 0.00 0.00 0.00 85 1013.6
20260505021922 61 79 0.0 0.0 0.00 0.00 0.00 85 1013.7
20260505021419 61 73 0.0 0.0 0.00 0.00 0.00 85 1013.8
20260505020915 61 74 0.0 0.0 0.00 0.00 0.00 84 1013.5
20260505020410 61 82 0.0 0.0 0.00 0.00 0.00 83 1013.6
20260505015908 61 92 0.0 0.0 0.00 0.00 0.00 82 1013.2
20260505015405 61 92 0.0 0.0 0.00 0.00 0.00 81 1013.5
20260505014902 61 92 0.0 0.0 0.00 0.00 0.00 80 1013.6
20260505014359 62 92 0.0 0.0 0.00 0.00 0.00 81 1013.3
20260505013855 62 92 0.0 0.0 0.00 0.00 0.00 80 1013.2
20260505013352 62 92 0.0 0.0 0.00 0.00 0.00 80 1013.2
20260505012851 62 92 0.0 0.0 0.00 0.00 0.00 79 1013.3
20260505012349 63 92 0.0 0.0 0.00 0.00 0.00 79 1012.9
20260505011844 63 92 0.0 0.0 0.00 0.00 0.00 78 1013.2
20260505011341 63 92 0.0 0.0 0.00 0.00 0.00 77 1012.9